BSB police log ending Nov. 15, 2013

Print
"11/14/2013","01:35","213CR0027270","DISTURBANCE","ASSAULT, SIMPLE","1800 MEADOWLARK","ARREST(s) MADE",""
"11/14/2013","02:47","213CR0027271","MEDICAL - EMERGENCY","MEDICAL - EMERGENCY","1922 MASSACHUSETTS","",""
"11/14/2013","04:53","213CR0027272","ALARM - BURGLARY","ALARM - BURGLARY","************","",""
"11/14/2013","05:40","213CR0027273","MEDICAL - EMERGENCY","MEDICAL - EMERGENCY","100 ASPEN WAY #D","",""
"11/14/2013","07:03","213CR0027274","ALL OTHER","ALL OTHER","658 S JACKSON","",""
"11/14/2013","07:31","213CR0027275","SUSPICIOUS ACTIVITY","SUSPICIOUS ACTIVITY","9 N MAIN ST","",""
"11/14/2013","08:10","213CR0027276","LED BUSINESS","LED BUSINESS","155 W GRANITE ST","",""
"11/14/2013","08:23","213CR0027277","THEFT","THEFT","967 HIGHWAY 2 W","",""
"11/14/2013","08:40","213CR0027278","DETENTION BUSINESS","DETENTION BUSINESS","************","",""
"11/14/2013","08:54","213CR0027279","HIT AND RUN","HIT AND RUN, UNATTENDED VEHICL","24 E BROADWAY","",""
"11/14/2013","09:07","213CR0027280","DISORDERLY CONDUCT","DISORDERLY CONDUCT","2600 GRAND AVE","",""
"11/14/2013","09:19","213CR0027281","CIVIL STANDBY","CIVIL STANDBY","3521 S WARREN","",""
"11/14/2013","09:21","213CR0027282","CRIMINAL TRESPASS","CRIMINAL TRESPASS","5101 S WARREN AVE #11","",""
"11/14/2013","09:23","213CR0027283","THEFT","THEFT","112 S JACKSON","",""
"11/14/2013","09:36","213CR0027284","DETENTION BUSINESS","DETENTION BUSINESS","************","",""
"11/14/2013","09:46","213CR0027285","CRIMINAL TRESPASS","CRIMINAL TRESPASS","1814 MASSACHUSETTS","",""
"11/14/2013","10:14","213CR0027286","T/S","T/S","HARRISON AVE AND C ST","",""
"11/14/2013","10:27","213CR0027287","T/S","T/S","IDAHO ST AND MERCURY ST","",""
"11/14/2013","10:32","213CR0027288","PARKING COMPLAINT","PARKING COMPLAINT","501 E FRONT ST","",""
"11/14/2013","10:35","213CR0027289","T/S","T/S","ROWE RD AND LEXINGTON AVE","",""
"11/14/2013","10:48","213CR0027290","THEFT","THEFT, PURSE SNATCH","2741 PLACER ST","",""
"11/14/2013","10:51","213CR0027291","T/S","T/S","MAIN AND 2ND","",""
"11/14/2013","10:54","213CR0027292","SUSPICIOUS ACTIVITY","AGGRAVATED DUI","BROADWAY AND IDAHO","ARREST(s) MADE",""
"11/14/2013","11:00","213CR0027293","RESTRAINING ORDER VIOLATION","RESTRAINING ORDER VIOLATION","************","",""
"11/14/2013","11:00","213CR0027294","HARASSMENT","HARASSMENT","721 MARYLAND AVE","",""
"11/14/2013","11:07","213CR0027295","JUVENILE MISC","JUVENILE MISC","************","",""
"11/14/2013","11:20","213CR0027296","FIRE - OTHER","FIRE - OTHER","1131 MISSOURI","",""
"11/14/2013","11:30","213CR0027297","DISTURBANCE","DISTURBANCE","401 S WYOMING","",""
"11/14/2013","12:28","213CR0027298","WANTED PERSON","WANTED PERSON","************","",""
"11/14/2013","12:46","213CR0027299","MEDICAL - EMERGENCY","MEDICAL - EMERGENCY","2201 SILVER BOW BLVD","",""
"11/14/2013","12:47","213CR0027300","T/S","T/S @ ","","",""
"11/14/2013","13:45","213CR0027301","DISORDERLY CONDUCT","DISORDERLY CONDUCT","401 S WYOMING","",""
"11/14/2013","13:57","213CR0027302","ALARM - BURGLARY","ALARM - BURGLARY","************","",""
"11/14/2013","13:59","213CR0027303","MEDICAL - EMERGENCY","MEDICAL - EMERGENCY","2777 HARRISON AVE","",""
"11/14/2013","14:15","213CR0027304","SUSPICIOUS ACTIVITY","SUSPICIOUS ACTIVITY","1317 HARRISON AVE","",""
"11/14/2013","14:19","213CR0027305","JUVENILE MISC","JUVENILE MISC","************","",""
"11/14/2013","14:37","213CR0027306","T/S","T/S @ HWY 2 MM 84","HWY 2 MM 84","",""
"11/14/2013","14:52","213CR0027307","FRAUD","FRAUD","3400 HILL AVE #403","",""
"11/14/2013","14:55","213CR0027308","HARASSMENT","HARASSMENT","611 N JACKSON ST","",""
"11/14/2013","14:57","213CR0027309","ACCIDENT-MHP","ACCIDENT-MHP","I 90 MM 227 W BND","",""
"11/14/2013","15:07","213CR0027310","DETENTION BUSINESS","DETENTION BUSINESS","************","",""
"11/14/2013","15:10","213CR0027311","PARKING COMPLAINT","PARKING COMPLAINT","629 W IRON ST","",""
"11/14/2013","15:27","213CR0027312","ATL","ATL","FLORNECE // ARGYLE","",""
"11/14/2013","15:43","213CR0027313","SUSPICIOUS ACTIVITY","SUSPICIOUS ACTIVITY","1000 S ARIZONA/HEAD START","",""
"11/14/2013","15:59","213CR0027314","JUVENILE MISC","JUVENILE MISC","************","",""
"11/14/2013","16:01","213CR0027315","THEFT","THEFT, SHOPLIFT","1925 DEWEY BLVD","ARREST(s) MADE",""
"11/14/2013","16:14","213CR0027316","ACCIDENT- INJURY(MHP)","ACCIDENT- INJURY(MHP)","I90 EXIT 216 WB","",""
"11/14/2013","16:29","213CR0027317","CIVIL STANDBY","CIVIL STANDBY","2016 HARRISON AVE","",""
"11/14/2013","16:33","213CR0027318","FIRE - STRUCTURE","FIRE - STRUCTURE","3010 MOULTON","",""
"11/14/2013","16:43","213CR0027319","LED BUSINESS","LED BUSINESS","","",""
"11/14/2013","16:45","213CR0027320","SUICIDE ATTEMPT/THREAT","SUICIDE ATTEMPT/THREAT","************","",""
"11/14/2013","17:00","213CR0027321","UNWANTED PERSON","UNWANTED PERSON","************","",""
"11/14/2013","17:01","213CR0027322","CIVIL STANDBY","CIVIL STANDBY","1620 N MAIN ST","",""
"11/14/2013","17:02","213CR0027323","THEFT","THEFT, SHOPLIFT","3100 HARRISON MOSES FOR MEN","",""
"11/14/2013","17:09","213CR0027324","WELFARE CHECK","WELFARE CHECK","522 N WYOMING","",""
"11/14/2013","17:19","213CR0027325","THEFT","THEFT","CLARK AND ALABAMA ST","",""
"11/14/2013","17:23","213CR0027326","MEDICAL - EMERGENCY","MEDICAL - EMERGENCY","303 W QUARTZ","",""
"11/14/2013","17:24","213CR0027327","FIRE - OTHER","FIRE - OTHER","4431 BULLRUN GULCH RD","",""
"11/14/2013","17:29","213CR0027328","SUSPICIOUS ACTIVITY","SUSPICIOUS ACTIVITY","PLATINUM AND MONTANA","",""
"11/14/2013","17:32","213CR0027329","ACCIDENT","ACCIDENT","JC PENNEYS 3100 HARRISON","",""
"11/14/2013","17:57","213CR0027330","DISTURBANCE","DISTURBANCE","533 S IDAHO","",""
"11/14/2013","18:20","213CR0027331","T/S","T/S","2905 HARRISON AVE","",""
"11/14/2013","18:23","213CR0027332","ALL OTHER","ALL OTHER","152 SHORTY WAY","",""
"11/14/2013","18:24","213CR0027333","INFORMATION ONLY","INFORMATION ONLY","2720 PHILLIPS ST","",""
"11/14/2013","18:38","213CR0027334","UNWANTED PERSON","UNWANTED PERSON","************","",""
"11/14/2013","18:50","213CR0027335","MEDICAL - EMERGENCY","MEDICAL - EMERGENCY","FRONT ST AND CALIFORNIA ST","",""
"11/14/2013","19:34","213CR0027336","WELFARE CHECK","WELFARE CHECK","110 CLINTON AVE","",""
"11/14/2013","20:04","213CR0027337","THEFT","THEFT, SHOPLIFT","531 S MONTANA ST","ARREST(s) MADE",""
"11/14/2013","20:17","213CR0027338","SUSPICIOUS ACTIVITY","SUSPICIOUS ACTIVITY","500 BLK S MONTANA","",""
"11/14/2013","20:59","213CR0027339","DISTURBANCE","DISTURBANCE","501 W GRANITE","",""
"11/14/2013","21:06","213CR0027340","FIRE - OTHER","FIRE - OTHER","4431 BULL RUN GULCH","",""
"11/14/2013","21:46","213CR0027341","ALARM - MEDICAL","ALARM - MEDICAL","************","",""
"11/14/2013","22:13","213CR0027342","WELFARE CHECK","WELFARE CHECK","303 W QUARTZ #1","",""
"11/14/2013","22:42","213CR0027343","SUSPICIOUS ACTIVITY","SUSPICIOUS ACTIVITY","647 TRAVONIA","",""
"11/14/2013","22:56","213CR0027344","T/S","T/S @ CLARK AND IRON","CLARK AND IRON","",""
"11/15/2013","00:25","213CR0027345","UNWANTED PERSON","UNWANTED PERSON","************","",""
"11/15/2013","01:08","213CR0027346","T/S","T/S @ I15 MM 126 NB","I15 MM 126 NB","",""
"11/15/2013","01:46","213CR0027347","SUSPICIOUS ACTIVITY","SUSPICIOUS ACTIVITY","I15 MM 127 NB","",""
"11/15/2013","01:49","213CR0027348","MEDICAL - EMERGENCY","MEDICAL - EMERGENCY","3434 SANDERS","",""
"11/15/2013","03:08","213CR0027349","SUSPICIOUS ACTIVITY","SUSPICIOUS ACTIVITY","2900 HARRSION/BUTTE PLAZA INN","",""
"11/15/2013","03:10","213CR0027350","PROWLER","PROWLER","735 HORNET ST","",""
"11/15/2013","03:49","213CR0027351","SUSPICIOUS ACTIVITY","SUSPICIOUS ACTIVITY","FRONT AND HARRISON","",""
"11/15/2013","03:53","213CR0027352","ATL","ATL","2305 CONTINENTAL DR TOWN PUMP","",""
"11/15/2013","04:23","213CR0027353","ATL","ATL","3901 HARRISON AVE","",""
"11/15/2013","05:04","213CR0027354","SUSPICIOUS ACTIVITY","SUSPICIOUS ACTIVITY","PARK AND MAIN","",""
"11/15/2013","05:23","213CR0027355","FIRE - OTHER","FIRE - OTHER","I90 MM 231 EB","",""
"11/15/2013","07:09","213CR0027357","ALARM - BURGLARY","ALARM - BURGLARY","************","",""
"11/15/2013","07:16","213CR0027358","ALARM - BURGLARY","ALARM - BURGLARY","************","",""